Location: Molino di Ancona
(43.6167°N, 13.3667°E)
Time: 04:46:32
(UTC+00:00)

Cosmos 1992 Rocket - Pass Details

Date: 15 December 2019
Orbit: 758 x 767 km, 74.0° (Epoch: 27 January)

Event Time Altitude Azimuth Distance (km) Brightness Sun altitude
Rises 05:52:38 0° 201° (SSW) 3,201 7.3 -7.2°
Reaches altitude 10° 05:55:00 10° 202° (SSW) 2,280 6.5 -6.8°
Maximum altitude 06:00:10 82° 290° (WNW) 771 4.0 -6.0°
Drops below altitude 10° 06:05:24 10° 19° (NNE) 2,299 6.4 -5.1°
Sets 06:07:47 0° 20° (NNE) 3,230 7.2 -4.7°
